User: anonymous   Login
Location: Unspecified
(0.0000°N, 0.0000°E)
Time: 14:31:46
(UTC+00:00)
Language:

AO-Echo - Orbit

View from above orbital plane
View from above orbital plane
View from above satellite
View from above satellite

Ground track
Ground track

The orbit data is extracted from the following two-line orbital elements,

1 28375U 04025K   17084.95014088 +.00000020 +00000-0 +18959-4 0  9999
2 28375 098.3537 020.1621 0082647 173.6664 186.5591 14.41829520669769
Epoch (UTC): 25 March 2017 22:48:12
Eccentricity: 0.0082647
inclination: 98.3537°
perigee height: 693 km
apogee height: 811 km
right ascension of ascending node: 20.1621°
argument of perigee: 173.6664°
revolutions per day: 14.41829520
mean anomaly at epoch: 186.5591°
orbit number at epoch: 66976

The dashed part of the orbit path shows where the satellite is in the earth's shadow,  

DLR